[[{"header":{"parameterUnit":"m.s-1","parameterCategory":1,"la1":30.2991,"la2":30.254,"lo1":-89.0895,"lo2":-89.0444,"dy":0.0017,"dx":0.0017,"nx":28,"ny":28,"refTime":"2026-02-06T09:00:00:Z","depth":0,"parameterNumber":2,"parameterNumberName":"U-component_of_WINDS"},"data":[0,0,0,0,0,0,0,0,0,0,0,0,0,0,0,0,0,0,0,0,0,0,0,0,0,0,0,0,0,0,0,0,0,0,0,0,0,0,0,0,0,0,0,0,0,0,0,0,0,0,0,0,0,0,0,0,0,0,3.0745,3.0746,0,3.0787,3.0788,3.0788,3.0755,3.0754,3.0753,3.0751,3.0797,3.08,3.0802,0,0,0,0,0,0,0,0,0,0,0,0,0,3.0642,3.0644,3.0745,3.0746,3.0746,3.0787,3.0788,3.0788,3.0756,3.0754,3.0752,3.0751,3.0797,3.08,3.0803,0,0,0,0,0,0,0,0,0,0,0,0,0,3.0686,3.0645,3.0745,3.0735,3.0735,3.0787,3.0788,3.0788,3.0756,3.0754,3.0752,3.075,3.0796,3.0799,3.0803,3.0869,0,0,3.0815,3.0816,0,0,0,0,0,0,0,0,3.0684,3.069,3.0736,3.0736,3.0735,3.0764,3.0768,3.0815,3.0757,3.0748,3.0751,3.0749,3.0788,3.0792,3.0805,3.0871,3.0873,3.0815,3.0817,3.0819,3.082,0,0,0,0,0,0,0,3.0681,3.0688,3.0762,3.0737,3.0736,3.073,3.0734,3.0777,3.078,3.0749,3.0746,3.0751,3.0788,3.0801,3.0806,3.0874,3.0815,3.0818,3.0821,3.0822,3.0998,3.1,0,0,0,0,0,0,3.0678,3.0686,3.0761,3.0763,3.0704,3.0733,3.0738,3.0757,3.0779,3.078,3.0753,3.075,3.0796,3.0801,3.0807,3.0887,3.0819,3.0823,3.0825,3.0996,3.0999,3.1001,0,0,0,0,0,0,3.0676,3.0685,3.0759,3.0724,3.0733,3.0737,3.0759,3.0759,3.0772,3.0782,3.0783,3.0767,3.0795,3.0802,3.0854,3.0888,3.0824,3.0828,3.0993,3.0997,3.1,3.1046,0,0,0,0,0,0,3.0673,3.0684,3.0708,3.0725,3.0735,3.0804,3.0761,3.0761,3.0779,3.0775,3.0795,3.0797,3.0793,3.0849,3.0858,3.0892,3.0831,3.099,3.0995,3.0999,3.1042,3.1051,3.1059,0,0,0,0,0,3.067,3.072,3.071,3.0719,3.0764,3.0806,3.0812,3.0806,3.0782,3.0806,3.0813,3.0796,3.0883,3.0854,3.0864,3.0901,3.0988,3.0993,3.0999,3.1038,3.1049,3.1059,0,0,0,0,0,0,3.0708,3.0722,3.071,3.0767,3.0786,3.08,3.0831,3.0818,3.0844,3.0839,3.0832,3.0837,3.0892,3.0902,3.0869,3.0967,3.0932,3.0939,3.0958,3.0969,3.0978,3.0975,3.0834,0,0,0,0,0,3.0723,3.0754,3.0765,3.0814,3.0824,3.0826,3.0844,3.0838,3.0857,3.0865,3.0875,3.0895,3.0928,3.0949,3.0979,3.1043,3.1048,3.1073,3.1082,3.1089,3.1096,3.1133,3.1145,3.1019,3.1019,3.1019,0,0,3.0755,3.0766,3.0786,3.0823,3.0836,3.087,3.0833,3.087,3.0895,3.0871,3.092,3.0929,3.0952,3.101,3.1037,3.102,3.1132,3.1096,3.1101,3.1104,3.114,3.1151,3.1162,3.1023,3.1022,3.1021,0,0,3.083,3.0841,3.0884,3.0898,3.0919,3.092,3.0931,3.0948,3.0952,3.1002,3.0984,3.1016,3.1071,3.1088,3.1104,3.1187,3.1173,3.1198,3.1243,3.1279,3.1289,3.1297,3.1329,3.134,3.1204,3.1204,3.1205,0,3.0867,3.0916,3.0908,3.0947,3.0964,3.0943,3.0988,3.1002,3.1032,3.1045,3.1025,3.1095,3.1108,3.1172,3.1193,3.1206,3.1219,3.1195,3.1288,3.1296,3.1304,3.1334,3.1346,3.1207,3.1207,3.1207,3.1206,0,3.0962,3.0996,3.1029,3.1057,3.1078,3.112,3.112,3.1142,3.1135,3.1139,3.1192,3.1207,3.1241,3.1255,3.1249,3.1319,3.1308,3.1288,3.1253,3.1319,3.1348,3.1359,3.1211,3.121,3.121,3.1209,0,0,3.1062,3.1086,3.1098,3.1112,3.1134,3.1161,3.1203,3.1234,3.1255,3.1277,3.1313,3.136,3.1343,3.1361,3.1356,3.1388,3.1456,3.1365,3.1365,3.1382,3.1536,3.1551,3.1564,3.1446,3.1448,3.145,3.1535,0,3.1139,3.1209,3.1204,3.1272,3.1305,3.1286,3.1323,3.1341,3.1347,3.1377,3.1383,3.1418,3.1391,3.1402,3.1432,3.1441,3.1487,3.1435,3.1482,3.1483,3.1477,3.1579,3.1595,3.1674,3.1545,3.1547,3.1548,0,3.1237,3.1262,3.1333,3.1351,3.1365,3.1398,3.1428,3.1456,3.1478,3.148,3.1501,3.1492,3.1536,3.15,3.1562,3.1527,3.1546,3.1553,3.1556,3.1561,3.152,3.1588,3.1698,3.1711,3.1565,3.1564,3.1563,0,3.1305,3.1356,3.1405,3.1417,3.144,3.1464,3.1474,3.1493,3.1514,3.154,3.1554,3.1586,3.1604,3.163,3.1631,3.1604,3.1694,3.1657,3.1699,3.1699,3.1719,3.1718,3.1835,3.173,3.173,3.1729,3.1729,0,3.1392,3.1436,3.1436,3.1466,3.1516,3.1511,3.1561,3.157,3.1587,3.1621,3.1607,3.1639,3.1637,3.167,3.1671,3.1724,3.1732,3.1736,3.1736,3.1738,3.1737,3.175,3.1745,3.1732,3.1732,3.1731,3.1731,0,3.1475,3.1477,3.153,3.1547,3.1552,3.1588,3.1604,3.1634,3.1638,3.1681,3.1691,3.1699,3.1737,3.174,3.1785,3.1786,3.185,3.1843,3.1842,3.1841,3.1883,3.1879,3.2014,3.2032,3.1914,3.1915,3.1916,0,3.1531,3.1565,3.1585,3.1606,3.1618,3.1652,3.1672,3.1669,3.1692,3.172,3.1747,3.1784,3.1813,3.1876,3.1886,3.1921,3.1916,3.1961,3.1921,3.1923,3.1919,3.1917,3.1921,3.1969,3.197,3.1971,3.1972,0,3.163,3.1629,3.1659,3.1689,3.1714,3.1738,3.176,3.1779,3.1779,3.1805,3.1843,3.1866,3.1912,3.195,3.1984,3.1997,3.1986,3.1985,3.1996,3.1999,3.1997,3.2,3.1864,3.1982,3.1981,3.198,3.1979,3.1979,3.1702,3.1732,3.1751,3.1785,3.1802,3.1824,3.1853,3.1861,3.1893,3.1929,3.1926,3.1969,3.1992,3.2037,3.2053,3.2088,3.2074,3.209,3.2094,3.2099,3.2104,3.1991,3.2095,3.2094,3.2094,3.2094,3.2094,0,3.1802,3.1813,3.1845,3.1876,3.1904,3.1889,3.1914,3.1938,3.1976,3.1998,3.2027,3.2073,3.2109,3.2124,3.216,3.2186,3.2182,3.2196,3.2194,3.2198,3.2114,3.2101,3.2199,3.2199,3.2199,3.2199,3.2199,3.2199,3.1856,3.1906,3.1909,3.1968,3.198,3.2021,3.2036,3.2057,3.2075,3.2126,3.2156,3.2165,3.2184,3.2223,3.2257,3.226,3.2275,3.2291,3.2293,3.2214,3.2204,3.2194,3.2181,3.2294,3.2295,3.2374,3.2375,3.2375]},{"header":{"parameterUnit":"m.s-1","parameterCategory":1,"la1":30.2991,"la2":30.254,"lo1":-89.0895,"lo2":-89.0444,"dy":0.0017,"dx":0.0017,"nx":28,"ny":28,"refTime":"2026-02-06T09:00:00:Z","depth":0,"parameterNumber":3,"parameterNumberName":"V-component_of_WINDS"},"data":[0,0,0,0,0,0,0,0,0,0,0,0,0,0,0,0,0,0,0,0,0,0,0,0,0,0,0,0,0,0,0,0,0,0,0,0,0,0,0,0,0,0,0,0,0,0,0,0,0,0,0,0,0,0,0,0,0,0,-0.5694,-0.5694,0,-0.5699,-0.5699,-0.5699,-0.5708,-0.5708,-0.5708,-0.5708,-0.5713,-0.5713,-0.5713,0,0,0,0,0,0,0,0,0,0,0,0,0,-0.5693,-0.5693,-0.5694,-0.5694,-0.5694,-0.5699,-0.5699,-0.5699,-0.5708,-0.5708,-0.5708,-0.5708,-0.5713,-0.5713,-0.5713,0,0,0,0,0,0,0,0,0,0,0,0,0,-0.5695,-0.5693,-0.5694,-0.5699,-0.57,-0.5699,-0.5699,-0.5699,-0.5708,-0.5708,-0.5708,-0.5708,-0.5713,-0.5713,-0.5713,-0.5707,0,0,-0.5713,-0.5713,0,0,0,0,0,0,0,0,-0.5695,-0.5695,-0.5698,-0.5699,-0.5699,-0.5703,-0.57,-0.5702,-0.5708,-0.5705,-0.5708,-0.5708,-0.5709,-0.571,-0.571,-0.5708,-0.5708,-0.5713,-0.5713,-0.5713,-0.5713,0,0,0,0,0,0,0,-0.5695,-0.5695,-0.5696,-0.5698,-0.5699,-0.5701,-0.5702,-0.5701,-0.5705,-0.5705,-0.5705,-0.5706,-0.571,-0.571,-0.571,-0.5708,-0.5713,-0.5713,-0.5713,-0.5713,-0.5702,-0.5702,0,0,0,0,0,0,-0.5694,-0.5695,-0.5696,-0.5696,-0.5698,-0.5701,-0.5702,-0.5701,-0.5705,-0.5706,-0.5706,-0.5706,-0.571,-0.571,-0.571,-0.5705,-0.5713,-0.5713,-0.5713,-0.5702,-0.5702,-0.5702,0,0,0,0,0,0,-0.5694,-0.5694,-0.5696,-0.5696,-0.5696,-0.5701,-0.57,-0.5701,-0.5702,-0.5706,-0.5707,-0.5705,-0.571,-0.571,-0.5708,-0.5705,-0.5713,-0.5713,-0.5703,-0.5702,-0.5702,-0.5693,0,0,0,0,0,0,-0.5694,-0.5694,-0.5692,-0.5696,-0.5696,-0.5693,-0.57,-0.5701,-0.5702,-0.5702,-0.5706,-0.5707,-0.571,-0.5708,-0.5708,-0.5705,-0.5712,-0.5703,-0.5702,-0.5702,-0.5693,-0.5692,-0.5691,0,0,0,0,0,-0.5694,-0.5689,-0.5692,-0.5692,-0.5693,-0.5693,-0.5693,-0.5698,-0.5701,-0.5699,-0.5702,-0.5706,-0.5705,-0.5708,-0.5708,-0.5705,-0.5703,-0.5703,-0.5702,-0.5694,-0.5692,-0.5691,0,0,0,0,0,0,-0.5684,-0.5689,-0.5693,-0.5688,-0.569,-0.5694,-0.5692,-0.5696,-0.5696,-0.5697,-0.5703,-0.5703,-0.5701,-0.5702,-0.5705,-0.57,-0.5705,-0.5704,-0.5699,-0.5697,-0.5696,-0.5696,-0.5712,0,0,0,0,0,-0.5682,-0.5681,-0.5685,-0.5681,-0.5682,-0.5687,-0.5687,-0.569,-0.5692,-0.5693,-0.5696,-0.5698,-0.5698,-0.5698,-0.5698,-0.5694,-0.5695,-0.5692,-0.569,-0.5689,-0.5689,-0.5687,-0.5686,-0.57,-0.57,-0.57,0,0,-0.5676,-0.5679,-0.5678,-0.568,-0.5681,-0.568,-0.5687,-0.5686,-0.5686,-0.5693,-0.5691,-0.5693,-0.5696,-0.5693,-0.5691,-0.5694,-0.5685,-0.5689,-0.5688,-0.5688,-0.5687,-0.5685,-0.5684,-0.57,-0.57,-0.57,0,0,-0.5666,-0.5668,-0.5665,-0.5667,-0.5669,-0.5673,-0.5672,-0.5676,-0.5678,-0.5676,-0.5681,-0.5681,-0.5681,-0.5683,-0.5684,-0.5675,-0.5679,-0.5675,-0.5669,-0.5667,-0.5666,-0.5665,-0.5662,-0.5661,-0.5674,-0.5674,-0.5674,0,-0.5659,-0.5658,-0.5663,-0.5661,-0.5662,-0.5669,-0.5666,-0.5668,-0.567,-0.5671,-0.5674,-0.5674,-0.5676,-0.5674,-0.5672,-0.5673,-0.5672,-0.5674,-0.5666,-0.5665,-0.5664,-0.5662,-0.5661,-0.5674,-0.5674,-0.5674,-0.5674,0,-0.5649,-0.5648,-0.5646,-0.5648,-0.5649,-0.5647,-0.5652,-0.5652,-0.5655,-0.5658,-0.5657,-0.566,-0.5661,-0.5661,-0.5664,-0.5659,-0.5661,-0.5665,-0.567,-0.5662,-0.566,-0.5659,-0.5673,-0.5673,-0.5674,-0.5674,0,0,-0.5632,-0.5638,-0.5637,-0.5639,-0.5642,-0.5642,-0.5641,-0.5642,-0.5642,-0.5644,-0.5643,-0.5643,-0.5647,-0.5648,-0.5652,-0.5651,-0.5644,-0.5655,-0.5655,-0.5653,-0.5639,-0.5636,-0.5635,-0.5647,-0.5647,-0.5647,-0.5639,0,-0.5623,-0.562,-0.5625,-0.5622,-0.5621,-0.5628,-0.5627,-0.563,-0.5633,-0.5633,-0.5636,-0.5637,-0.5642,-0.5642,-0.5641,-0.5645,-0.5641,-0.5646,-0.5646,-0.5646,-0.5645,-0.5634,-0.563,-0.5623,-0.5638,-0.5638,-0.5638,0,-0.5611,-0.5613,-0.5609,-0.5614,-0.5614,-0.5613,-0.5615,-0.5615,-0.5618,-0.562,-0.5622,-0.5627,-0.5626,-0.5631,-0.563,-0.5633,-0.5634,-0.5636,-0.5636,-0.5636,-0.5642,-0.5634,-0.5621,-0.562,-0.5637,-0.5637,-0.5637,0,-0.5599,-0.5601,-0.5599,-0.56,-0.5605,-0.5604,-0.5606,-0.561,-0.5611,-0.5613,-0.5613,-0.5615,-0.5616,-0.5618,-0.5623,-0.5626,-0.5622,-0.5627,-0.5624,-0.5624,-0.5622,-0.5622,-0.561,-0.5623,-0.5623,-0.5623,-0.5623,0,-0.5588,-0.5586,-0.5594,-0.5592,-0.559,-0.5596,-0.5594,-0.5597,-0.56,-0.56,-0.5606,-0.5606,-0.5613,-0.5614,-0.5618,-0.5617,-0.5617,-0.5619,-0.562,-0.5619,-0.5618,-0.5619,-0.562,-0.5623,-0.5623,-0.5623,-0.5623,0,-0.5574,-0.558,-0.5578,-0.5584,-0.5585,-0.5583,-0.5588,-0.5587,-0.5591,-0.5591,-0.5591,-0.5597,-0.5598,-0.5604,-0.5606,-0.5609,-0.5607,-0.5609,-0.5606,-0.5606,-0.5603,-0.5603,-0.559,-0.5589,-0.5603,-0.5603,-0.5603,0,-0.5567,-0.5565,-0.5571,-0.5571,-0.5573,-0.5574,-0.5575,-0.5581,-0.5581,-0.5585,-0.5584,-0.5586,-0.5588,-0.559,-0.5594,-0.5597,-0.5599,-0.5594,-0.5599,-0.5598,-0.5599,-0.5599,-0.5599,-0.5593,-0.5593,-0.5593,-0.5593,0,-0.5553,-0.5556,-0.5557,-0.5559,-0.556,-0.5562,-0.5565,-0.5565,-0.5572,-0.5572,-0.5574,-0.5575,-0.5578,-0.558,-0.5583,-0.5585,-0.559,-0.5591,-0.559,-0.5589,-0.5587,-0.5588,-0.5603,-0.5591,-0.5591,-0.5591,-0.5592,-0.5592,-0.5542,-0.5542,-0.5545,-0.5547,-0.5549,-0.5551,-0.5551,-0.5555,-0.5556,-0.5559,-0.5563,-0.5564,-0.5568,-0.5573,-0.5575,-0.5576,-0.5579,-0.5578,-0.5578,-0.5577,-0.5577,-0.5587,-0.5577,-0.5577,-0.5577,-0.5577,-0.5577,0,-0.5529,-0.5532,-0.5533,-0.5536,-0.5538,-0.5542,-0.5545,-0.5546,-0.5547,-0.555,-0.5552,-0.5554,-0.5556,-0.5561,-0.5564,-0.5564,-0.5566,-0.5564,-0.5564,-0.5565,-0.5574,-0.5574,-0.5562,-0.5562,-0.5562,-0.5562,-0.5562,-0.5562,-0.5522,-0.5521,-0.5525,-0.5525,-0.5528,-0.5529,-0.5531,-0.5533,-0.5536,-0.5537,-0.5539,-0.5543,-0.5547,-0.555,-0.5552,-0.5554,-0.5555,-0.5552,-0.5554,-0.5563,-0.5564,-0.5566,-0.5566,-0.5552,-0.5552,-0.5545,-0.5545,-0.5545]}]]